Regional Weather Roundup
Issued by NWS

Home | Current Version | Previous Version | Graphics & Text | Print | Product List | Glossary On
Versions: 1 2 3 4 5 6 7 8 9 10 11 12 13 14 15 16 17 18 19 20 21 22 23 24 25 26 27 28 29 30 31 32 33 34 35 36 37 38 39 40 41 42 43 44 45 46 47 48 49 50
000
ASUS45 KTFX 210304
RWRMT
MONTANA HOURLY WEATHER ROUNDUP
NATIONAL WEATHER SERVICE GREAT FALLS MT
904 PM MDT WED AUG 20 2014

NOTE: "FAIR" INDICATES FEW OR NO CLOUDS BELOW 12000 FEET WITH NO
SIGNIFICANT WEATHER AND/OR OBSTRUCTIONS TO VISIBILITY.

* THESE STATIONS ARE NOT UNDER NWS QUALITY CONTROL. THEY DO NOT
   REPORT WEATHER SUCH AS PRECIPITATION OR FOG.

MTZ001>007-043-210400-
WEST OF THE DIVIDE
CITY           SKY/WX    TMP DP  RH WIND       PRES   REMARKS
KALISPELL      PTCLDY    57  55  93 N7        29.89R
MISSOULA       CLOUDY    68  52  57 SE7       29.89R
BUTTE          LGT RAIN  57  48  72 SE6       30.03R
MULLAN PASS    CLEAR     52  45  77 VRB3      30.01S
* ESSEX        N/A       55  51  86 E1         N/A
* LINCOLN      N/A       67  47  49 S5         N/A
* LOOKOUT PASS N/A       56  49  77 N/A        N/A
* POLSON       N/A       61  54  78 N/A        N/A
* RONAN APT    MOCLDY    68  55  63 N/A        N/A
* SEELEY LAKE  N/A       66  48  52 W2G8       N/A
* THOMP F APT  CLEAR     52  47  83 N6         N/A
* YAAK HILL    N/A       61  57  87 N/A        N/A
$$

MTZ008-052>055-210400-
SOUTHWEST MONTANA
CITY           SKY/WX    TMP DP  RH WIND       PRES   REMARKS
BOZEMAN        CLOUDY    64  48  56 CALM      29.96R
DILLON         CLOUDY    55  48  77 S7        30.00R
W YELLOWSTONE  CLOUDY    48  48 100 SW5       30.12R
* THREE FORKS  CLOUDY    63  55  75 N/A        N/A
* BOULDER HILL N/A       53  45  74 SW9        N/A
* MONIDA PASS  N/A       51  49  93 W2         N/A
* RAYNOLDS PAS N/A       49  34  56 S6         N/A
* WHITEHALL    N/A       61  54  78 NW3        N/A
* WISE RIVER   N/A       57  43  60 NW3G10     N/A
$$

MTZ009>010-012-014-046-048-049-054-210400-
EAST SLOPES AND CENTRAL MONTANA
CITY           SKY/WX    TMP DP  RH WIND       PRES   REMARKS
CUT BANK       CLOUDY    55  52  90 NW14      29.98R
GREAT FALLS    CLOUDY    61  52  72 N18G26    29.90R
HELENA         CLOUDY    66  46  49 SE3       29.90R
MALMSTROM AFB  MOCLDY    59  54  84 NE14G25   29.92R
* CONRAD       MOCLDY    57  57 100 NW5        N/A
* DEARBORN     N/A       70  51  51 SW2        N/A
* EAST GLACIER N/A       50  48  93 SE8        N/A
* MONARCH      N/A       57  45  64 S9         N/A
* PENDROY      N/A       53  51  93 VRB13G19    N/A
* ROGERS PASS  N/A       63  44  50 E1         N/A
* SAINT MARY   N/A       51  48  90 NE5G11     N/A
* SWEET GRASS  N/A       55  55 100 NE12G17    N/A
$$

MTZ011-013-016-021-035-040-045-047-050-051-210400-
NORTH CENTRAL MONTANA
CITY           SKY/WX    TMP DP  RH WIND       PRES   REMARKS
HAVRE          CLOUDY    64  55  73 N3        29.88R
LEWISTOWN      CLOUDY    61  54  78 S13       29.91F
* CHESTER      N/A       58  53  84 NW12G20    N/A
* DENTON       N/A       61  53  75 S11G16     N/A
* GEYSER       N/A       59  48  67 N/A        N/A
* JUDITH GAP   N/A       56  55  96 N3G8       N/A
* LOMA         N/A       62  57  84 NW16G22    N/A
$$

MTZ017>020-022>027-061-062-210400-
NORTHEAST MONTANA
CITY           SKY/WX    TMP DP  RH WIND       PRES   REMARKS
GLASGOW        CLEAR     73  54  51 CALM      29.78R
GLENDIVE       PTCLDY    66  61  84 SW6       29.81R
JORDAN         PTCLDY    66  55  68 CALM      29.82R
SIDNEY         PTCLDY    64  61  90 SW5       29.79R
WOLF POINT     CLEAR     70  55  59 CALM      29.78R
* BEAVER HILL  N/A       64  59  84 S6         N/A
* CIRCLE       N/A       71  57  61 N/A        N/A
* LINDSAY DVD  N/A       64  54  70 W6         N/A
* SACO         N/A       67  53  61 VRB7       N/A
$$

MTZ028>042-056>058-210400-
SOUTHCENTRAL AND SOUTHEAST MONTANA
CITY           SKY/WX    TMP DP  RH WIND       PRES   REMARKS
BAKER          PTCLDY    64  59  84 CALM      29.84R
BILLINGS       CLOUDY    63  55  75 NW20      29.89R
LIVINGSTON     CLOUDY    63  48  58 SW16      29.95R
MILES CITY     CLEAR     70  54  57 N7        29.81R
* LAUREL APT   CLOUDY    63  50  63 NW15G24    N/A
* ROUNDUP APT  CLOUDY    61  54  78 SW8        N/A
* ALZADA       N/A       70  50  49 N6         N/A
* HYSHAM       N/A       70  42  36 E2         N/A
* LAME DEER    N/A       67  44  44 NE8        N/A
* REED POINT   N/A       60  56  87 SW2        N/A
* ROSCOE HILL  N/A       59  49  70 E3         N/A
$$

REGIONAL REPORTS...DAKOTAS
CITY           SKY/WX    TMP DP  RH WIND       PRES   REMARKS
WILLISTON      PTCLDY    66  63  90 W7        29.76R
DICKINSON      CLEAR     64  61  90 N6        29.78R
BEACH          N/A       63  61  93 SW5       29.82R
CROSBY         MOCLDY    64  64 100 CALM      29.78R
TIOGA          MOCLDY    59  59 100 CALM      29.81R
WATFORD CITY   MOCLDY    64  59  84 SW5       29.76R
BISMARCK       CLOUDY    72  70  93 E8        29.69F
GRAND FORKS    MOCLDY    73  66  79 SE9       29.77R
FARGO          MOCLDY    73  66  79 SE13      29.78S
BUFFALO SD     PTCLDY    64  59  84 NW8       29.76R
RAPID CITY     CLEAR     70  55  59 N12       29.81R
$$

REGIONAL REPORTS...WYOMING/IDAHO/WASHINGTON
CITY           SKY/WX    TMP DP  RH WIND       PRES   REMARKS
GILLETTE       PTCLDY    64  46  52 CALM      29.90R
SHERIDAN       MOCLDY    63  48  58 SE3       29.88R
CODY           CLOUDY    59  48  67 SW30G37   30.01R
YELLOWSTONE LA CLOUDY    45  45 100 VRB5      30.21R
SALMON         CLOUDY    61  52  72 CALM      29.95R
MULLAN PASS    CLEAR     52  45  77 VRB3      30.01S
SAND POINT     LGT RAIN  61  61 100 CALM      29.90R
SPOKANE        MOCLDY    70  54  57 SE6       29.83S
$$

REGIONAL REPORTS...ALBERTA
CITY           SKY/WX    TMP DP  RH WIND       PRES   REMARKS
EDMONTON       MOCLDY    54  46  74 NW8       30.00R

$$



USA.gov is the U.S. government's official web portal to all federal, state and local government web resources and services.